User: anonymous   Login
Location: Caltech
(34.1382°N, 118.1253°W)
Time: 17:09:39
(UTC-07:00)
Language:

HO-68 - Orbit

View from above orbital plane
View from above orbital plane
View from above satellite
View from above satellite

Ground track
Ground track

The orbit data is extracted from the following two-line orbital elements,

1 36122U 09072B   15091.85749616 -.00000060  00000-0 -43517-4 0  9996
2 36122 100.2045 139.3568 0006956 295.5686 064.4710 13.16325270254418
Epoch (UTC): 01 April 2015 20:34:47
Eccentricity: 0.0006956
inclination: 100.2045°
perigee height: 1193 km
apogee height: 1204 km
right ascension of ascending node: 139.3568°
argument of perigee: 295.5686°
revolutions per day: 13.16325270
mean anomaly at epoch: 64.4710°
orbit number at epoch: 25441

The dashed part of the orbit path shows where the satellite is in the earth's shadow,  

DLR